• In Romania
  • List of Countries
  • For 7 days
  • Water Temperature
  • Satellite Maps
  • Weather Map
  • Weather Widgets
  • user-avatar
    Login

    Hourly Weather Dolany

    Today, 22 October, Monday

    Time Temperature Precipitation Wind Pressure Humidity
    00:00 +4°C° 0 mm 0 mps 740 mmHg 87%
    01:00 +4°C° 0 mm 0 mps 740 mmHg 87%
    02:00 +4°C° 0 mm 0 mps 740 mmHg 88%
    03:00 +5°C° 0 mm 1 mps 739 mmHg 88%
    04:00 +5°C° 0 mm 1 mps 739 mmHg 88%
    05:00 +4°C° 0 mm 0 mps 739 mmHg 87%
    06:00 +4°C° 0 mm 0 mps 739 mmHg 86%
    07:00 +4°C° 0 mm 0 mps 739 mmHg 85%
    08:00 +6°C° 0 mm 0 mps 739 mmHg 77%
    09:00 +8°C° 0 mm 0 mps 739 mmHg 68%
    10:00 +11°C° 0 mm 0 mps 739 mmHg 59%
    11:00 +12°C° 0 mm 1 mps 739 mmHg 56%
    12:00 +13°C° 0 mm 1 mps 738 mmHg 53%
    13:00 +14°C° 0 mm 1 mps 738 mmHg 50%
    14:00 +13°C° 0 mm 1 mps 738 mmHg 54%
    15:00 +13°C° 0 mm 1 mps 737 mmHg 57%
    16:00 +12°C° 0 mm 2 mps 737 mmHg 60%
    17:00 +10°C° 0 mm 2 mps 737 mmHg 65%
    18:00 +8°C° 0 mm 2 mps 737 mmHg 69%
    19:00 +7°C° 0 mm 2 mps 737 mmHg 73%
    20:00 +8°C° 0.1 mm 2 mps 737 mmHg 75%
    21:00 +8°C° 0.1 mm 2 mps 738 mmHg 76%
    22:00 +8°C° 0.1 mm 3 mps 738 mmHg 78%
    23:00 +8°C° 0.2 mm 3 mps 738 mmHg 80%

    Tomorrow, 23 October, Tuesday

    Time Temperature Precipitation Wind Pressure Humidity
    00:00 +8°C° 0.2 mm 3 mps 738 mmHg 82%
    01:00 +8°C° 0.2 mm 3 mps 738 mmHg 84%
    02:00 +7°C° 0.1 mm 3 mps 737 mmHg 86%
    03:00 +5°C° 0.1 mm 3 mps 737 mmHg 88%
    04:00 +5°C° 0.1 mm 3 mps 737 mmHg 90%
    05:00 +4°C° 0 mm 3 mps 737 mmHg 89%
    06:00 +4°C° 0 mm 3 mps 737 mmHg 88%
    07:00 +4°C° 0 mm 3 mps 737 mmHg 86%
    08:00 +5°C° 0 mm 3 mps 736 mmHg 79%
    09:00 +6°C° 0 mm 4 mps 736 mmHg 72%
    10:00 +7°C° 0 mm 4 mps 735 mmHg 65%
    11:00 +7°C° 0.1 mm 5 mps 734 mmHg 65%
    12:00 +7°C° 0.1 mm 6 mps 733 mmHg 64%
    13:00 +7°C° 0.1 mm 6 mps 732 mmHg 63%
    14:00 +6°C° 0.2 mm 7 mps 731 mmHg 66%
    15:00 +6°C° 0.2 mm 7 mps 730 mmHg 69%
    16:00 +5°C° 0.2 mm 8 mps 729 mmHg 71%
    17:00 +5°C° 0.7 mm 8 mps 729 mmHg 74%
    18:00 +5°C° 0.7 mm 8 mps 728 mmHg 77%
    19:00 +5°C° 0.7 mm 8 mps 727 mmHg 80%
    20:00 +6°C° 0.8 mm 8 mps 727 mmHg 81%
    21:00 +7°C° 0.8 mm 8 mps 726 mmHg 81%
    22:00 +7°C° 0.8 mm 9 mps 725 mmHg 81%
    23:00 +7°C° 1.3 mm 9 mps 724 mmHg 82%

    Day after tomorrow, 24 October, Wednesday

    Time Temperature Precipitation Wind Pressure Humidity
    00:00 +9°C° 1.3 mm 8 mps 723 mmHg 84%
    01:00 +9°C° 1.3 mm 8 mps 723 mmHg 85%
    02:00 +8°C° 1.4 mm 9 mps 722 mmHg 84%
    03:00 +8°C° 1.4 mm 10 mps 721 mmHg 84%
    04:00 +9°C° 1.4 mm 10 mps 721 mmHg 83%
    05:00 +7°C° 1.7 mm 10 mps 721 mmHg 79%
    06:00 +6°C° 1.7 mm 10 mps 721 mmHg 74%
    07:00 +5°C° 1.7 mm 10 mps 721 mmHg 70%
    08:00 +5°C° 0.1 mm 10 mps 722 mmHg 67%
    09:00 +3°C° 0.1 mm 10 mps 723 mmHg 64%
    10:00 +3°C° 0.1 mm 10 mps 724 mmHg 61%
    11:00 +3°C° 0.2 mm 10 mps 724 mmHg 58%
    12:00 +5°C° 0.2 mm 10 mps 725 mmHg 55%
    13:00 +5°C° 0.2 mm 10 mps 725 mmHg 53%
    14:00 +5°C° 0.1 mm 9 mps 725 mmHg 52%
    15:00 +4°C° 0.1 mm 8 mps 726 mmHg 52%
    16:00 +4°C° 0.1 mm 7 mps 726 mmHg 51%
    17:00 +4°C° 0 mm 7 mps 727 mmHg 52%
    18:00 +3°C° 0 mm 7 mps 728 mmHg 53%
    19:00 +3°C° 0 mm 7 mps 728 mmHg 54%
    20:00 +2°C° 0 mm 6 mps 729 mmHg 57%
    21:00 +2°C° 0 mm 6 mps 729 mmHg 59%
    22:00 +2°C° 0 mm 6 mps 730 mmHg 61%
    23:00 +1°C° 0 mm 6 mps 730 mmHg 64%

    25 October, Thursday

    Time Temperature Precipitation Wind Pressure Humidity
    00:00 +1°C° 0 mm 5 mps 731 mmHg 67%
    01:00 +1°C° 0 mm 5 mps 731 mmHg 70%
    02:00 +1°C° 0 mm 5 mps 732 mmHg 72%
    03:00 0°C° 0 mm 5 mps 732 mmHg 75%
    04:00 0°C° 0 mm 4 mps 732 mmHg 78%
    05:00 0°C° 0 mm 4 mps 732 mmHg 79%
    06:00 0°C° 0 mm 4 mps 733 mmHg 80%
    07:00 0°C° 0 mm 4 mps 733 mmHg 81%
    08:00 +1°C° 0 mm 4 mps 733 mmHg 75%
    09:00 +3°C° 0 mm 5 mps 733 mmHg 70%
    10:00 +5°C° 0 mm 5 mps 733 mmHg 65%
    11:00 +5°C° 0 mm 6 mps 732 mmHg 65%
    12:00 +5°C° 0 mm 6 mps 732 mmHg 65%
    13:00 +7°C° 0 mm 6 mps 732 mmHg 66%
    14:00 +7°C° 0.1 mm 5 mps 731 mmHg 70%
    15:00 +7°C° 0.1 mm 5 mps 731 mmHg 74%
    16:00 +7°C° 0.1 mm 4 mps 731 mmHg 78%
    17:00 +7°C° 0 mm 5 mps 731 mmHg 79%
    18:00 +7°C° 0 mm 5 mps 731 mmHg 80%
    19:00 +7°C° 0 mm 5 mps 731 mmHg 82%
    20:00 +7°C° 0 mm 4 mps 731 mmHg 84%
    21:00 +7°C° 0 mm 4 mps 731 mmHg 87%
    22:00 +7°C° 0 mm 4 mps 731 mmHg 89%
    23:00 +7°C° 0.1 mm 4 mps 730 mmHg 89%

    26 October, Friday

    Time Temperature Precipitation Wind Pressure Humidity
    00:00 +7°C° 0.1 mm 4 mps 730 mmHg 89%
    01:00 +7°C° 0.1 mm 4 mps 730 mmHg 90%
    02:00 +8°C° 0 mm 3 mps 730 mmHg 90%
    03:00 +7°C° 0 mm 3 mps 730 mmHg 90%
    04:00 +7°C° 0 mm 3 mps 730 mmHg 90%
    05:00 +7°C° 0 mm 3 mps 730 mmHg 91%
    06:00 +7°C° 0 mm 3 mps 730 mmHg 91%
    07:00 +5°C° 0 mm 3 mps 730 mmHg 92%
    08:00 +8°C° 0 mm 3 mps 730 mmHg 85%
    09:00 +9°C° 0 mm 3 mps 730 mmHg 78%
    10:00 +11°C° 0 mm 3 mps 730 mmHg 72%
    11:00 +11°C° 0 mm 3 mps 729 mmHg 68%
    12:00 +12°C° 0 mm 3 mps 729 mmHg 64%
    13:00 +13°C° 0 mm 3 mps 728 mmHg 61%
    14:00 +13°C° 0 mm 3 mps 728 mmHg 64%
    15:00 +13°C° 0 mm 2 mps 727 mmHg 68%
    16:00 +12°C° 0 mm 2 mps 727 mmHg 72%
    17:00 +10°C° 0 mm 2 mps 727 mmHg 76%
    18:00 +9°C° 0 mm 2 mps 727 mmHg 80%
    19:00 +8°C° 0 mm 2 mps 727 mmHg 84%
    20:00 +8°C° 0 mm 2 mps 726 mmHg 85%
    21:00 +8°C° 0 mm 2 mps 726 mmHg 87%
    22:00 +7°C° 0 mm 2 mps 726 mmHg 88%
    23:00 +8°C° 0 mm 2 mps 726 mmHg 88%

    27 October, Saturday

    Time Temperature Precipitation Wind Pressure Humidity
    00:00 +8°C° 0 mm 2 mps 726 mmHg 89%
    01:00 +8°C° 0 mm 2 mps 726 mmHg 89%
    02:00 +8°C° 0 mm 2 mps 725 mmHg 90%
    03:00 +8°C° 0 mm 2 mps 725 mmHg 91%
    04:00 +8°C° 0 mm 2 mps 725 mmHg 91%
    05:00 +8°C° 0 mm 2 mps 725 mmHg 92%
    06:00 +8°C° 0 mm 2 mps 724 mmHg 92%
    07:00 +8°C° 0 mm 2 mps 724 mmHg 92%
    08:00 +10°C° 0 mm 2 mps 724 mmHg 86%
    09:00 +13°C° 0 mm 2 mps 723 mmHg 79%
    10:00 +15°C° 0 mm 2 mps 723 mmHg 73%
    11:00 +14°C° 0 mm 3 mps 722 mmHg 73%
    12:00 +14°C° 0 mm 3 mps 722 mmHg 73%
    13:00 +16°C° 0 mm 3 mps 721 mmHg 73%
    14:00 +14°C° 0.2 mm 3 mps 721 mmHg 76%
    15:00 +14°C° 0.2 mm 3 mps 720 mmHg 79%
    16:00 +14°C° 0.2 mm 3 mps 720 mmHg 82%
    17:00 +13°C° 0.2 mm 3 mps 720 mmHg 83%
    18:00 +14°C° 0.2 mm 2 mps 719 mmHg 85%
    19:00 +14°C° 0.2 mm 2 mps 719 mmHg 86%
    20:00 +12°C° 0.2 mm 3 mps 719 mmHg 87%
    21:00 +12°C° 0.2 mm 3 mps 719 mmHg 87%
    22:00 +12°C° 0.2 mm 3 mps 719 mmHg 88%
    23:00 +11°C° 0.8 mm 3 mps 720 mmHg 88%
    Show more